| time (UTC) | temp F | wind direction | speed MPH | gust MPH | rain 1hr in | rain 24hr in | rain mn in | humidity % | barometer mb |
| 20260505114017 | 56 | 0.0 | 3.0 | 0.00 | 0.00 | 0.00 | 60 | 1008.5 | |
| 20260505113517 | 56 | 0.0 | 3.0 | 0.00 | 0.00 | 0.00 | 59 | 1008.5 | |
| 20260505113018 | 56 | 0.0 | 2.0 | 0.00 | 0.00 | 0.00 | 57 | 1008.5 | |
| 20260505112517 | 56 | 0.0 | 3.0 | 0.00 | 0.00 | 0.00 | 57 | 1008.4 | |
| 20260505112017 | 56 | 0.0 | 2.0 | 0.00 | 0.00 | 0.00 | 57 | 1008.3 | |
| 20260505111517 | 56 | 0.0 | 2.0 | 0.00 | 0.00 | 0.00 | 58 | 1008.3 | |
| 20260505111017 | 56 | 0.0 | 1.0 | 0.00 | 0.00 | 0.00 | 58 | 1008.3 | |
| 20260505110517 | 56 | 0.0 | 2.0 | 0.00 | 0.00 | 0.00 | 59 | 1008.4 | |
| 20260505102017 | 56 | 0.0 | 1.0 | 0.00 | 0.00 | 0.00 | 65 | 1008.3 | |
| 20260505101517 | 56 | 0.0 | 2.0 | 0.00 | 0.00 | 0.00 | 65 | 1008.3 | |
| 20260505101017 | 56 | 0.0 | 2.0 | 0.00 | 0.00 | 0.00 | 64 | 1008.2 | |
| 20260505100517 | 57 | 0.0 | 2.0 | 0.00 | 0.00 | 0.00 | 64 | 1008.1 | |
| 20260505100017 | 57 | 0.0 | 4.0 | 0.00 | 0.00 | 0.00 | 64 | 1008.2 | |
| 20260505095517 | 57 | 0.0 | 2.0 | 0.00 | 0.00 | 0.00 | 63 | 1008.0 | |
| 20260505095017 | 57 | 0.0 | 3.0 | 0.00 | 0.00 | 0.00 | 63 | 1008.3 | |
| 20260505094517 | 57 | 0.0 | 3.0 | 0.00 | 0.00 | 0.00 | 63 | 1008.1 | |
| 20260505094017 | 57 | 203 | 1.0 | 4.0 | 0.00 | 0.00 | 0.00 | 63 | 1008.4 |
| 20260505093517 | 57 | 0.0 | 2.0 | 0.00 | 0.00 | 0.00 | 62 | 1008.4 | |
| 20260505093017 | 57 | 0.0 | 3.0 | 0.00 | 0.00 | 0.00 | 62 | 1008.4 | |
| 20260505092517 | 57 | 0.0 | 2.0 | 0.00 | 0.00 | 0.00 | 61 | 1008.7 | |
| 20260505092017 | 57 | 0.0 | 2.0 | 0.00 | 0.00 | 0.00 | 60 | 1008.7 | |
| 20260505091517 | 57 | 0.0 | 2.0 | 0.00 | 0.00 | 0.00 | 60 | 1008.7 | |
| 20260505091017 | 57 | 203 | 1.0 | 3.0 | 0.00 | 0.00 | 0.00 | 62 | 1008.7 |
| 20260505090517 | 57 | 203 | 1.0 | 4.0 | 0.00 | 0.00 | 0.00 | 61 | 1008.8 |
| 20260505090017 | 57 | 0.0 | 3.0 | 0.00 | 0.00 | 0.00 | 60 | 1008.7 | |
| 20260505085517 | 57 | 0.0 | 2.0 | 0.00 | 0.00 | 0.00 | 60 | 1009.3 | |
| 20260505085017 | 57 | 0.0 | 3.0 | 0.00 | 0.00 | 0.00 | 59 | 1009.3 | |
| 20260505084517 | 57 | 0.0 | 1.0 | 0.00 | 0.00 | 0.00 | 60 | 1009.1 | |
| 20260505084017 | 57 | 0.0 | 3.0 | 0.00 | 0.00 | 0.00 | 61 | 1009.4 | |
| 20260505083517 | 57 | 0.0 | 3.0 | 0.00 | 0.00 | 0.00 | 61 | 1009.4 | |
| 20260505083017 | 57 | 0.0 | 2.0 | 0.00 | 0.00 | 0.00 | 61 | 1009.1 | |
| 20260505082517 | 56 | 0.0 | 3.0 | 0.00 | 0.00 | 0.00 | 61 | 1009.2 | |
| 20260505082017 | 56 | 0.0 | 3.0 | 0.00 | 0.00 | 0.00 | 62 | 1009.2 | |
| 20260505081517 | 56 | 203 | 1.0 | 3.0 | 0.00 | 0.00 | 0.00 | 62 | 1009.2 |
| 20260505081017 | 57 | 203 | 1.0 | 4.0 | 0.00 | 0.00 | 0.00 | 62 | 1009.3 |
| 20260505080517 | 57 | 0.0 | 2.0 | 0.00 | 0.00 | 0.00 | 62 | 1009.2 | |
| 20260505080017 | 57 | 203 | 1.0 | 5.0 | 0.00 | 0.00 | 0.00 | 62 | 1009.2 |
| 20260505075517 | 56 | 203 | 1.0 | 4.0 | 0.00 | 0.00 | 0.00 | 62 | 1009.2 |
| 20260505075017 | 57 | 203 | 2.0 | 6.0 | 0.00 | 0.00 | 0.00 | 62 | 1009.2 |
| 20260505074517 | 57 | 203 | 1.0 | 5.0 | 0.00 | 0.00 | 0.00 | 61 | 1009.6 |
| 20260505074017 | 57 | 203 | 1.0 | 4.0 | 0.00 | 0.00 | 0.00 | 61 | 1009.6 |
| 20260505073517 | 57 | 203 | 2.0 | 9.0 | 0.00 | 0.00 | 0.00 | 61 | 1009.6 |
| 20260505073017 | 57 | 203 | 3.0 | 9.0 | 0.00 | 0.00 | 0.00 | 60 | 1009.7 |
| 20260505072517 | 57 | 203 | 3.0 | 11.0 | 0.00 | 0.00 | 0.00 | 60 | 1009.6 |
| 20260505072017 | 57 | 203 | 2.0 | 7.0 | 0.00 | 0.00 | 0.00 | 59 | 1009.6 |
| 20260505071517 | 57 | 135 | 2.0 | 7.0 | 0.00 | 0.00 | 0.00 | 59 | 1009.6 |
| 20260505071017 | 57 | 135 | 2.0 | 5.0 | 0.00 | 0.00 | 0.00 | 58 | 1009.7 |
| 20260505070517 | 57 | 135 | 1.0 | 5.0 | 0.00 | 0.00 | 0.00 | 57 | 1009.7 |
| 20260505070017 | 57 | 135 | 1.0 | 6.0 | 0.00 | 0.00 | 0.00 | 55 | 1009.7 |
| 20260505065520 | 57 | 158 | 1.0 | 5.0 | 0.00 | 0.00 | 0.00 | 54 | 1009.7 |
| 20260505065017 | 57 | 135 | 1.0 | 6.0 | 0.00 | 0.00 | 0.00 | 54 | 1009.7 |
| 20260505064517 | 57 | 135 | 3.0 | 10.0 | 0.00 | 0.00 | 0.00 | 53 | 1009.8 |
| 20260505064017 | 57 | 158 | 2.0 | 9.0 | 0.00 | 0.00 | 0.00 | 53 | 1009.8 |
| 20260505063517 | 57 | 158 | 3.0 | 7.0 | 0.00 | 0.00 | 0.00 | 54 | 1009.7 |
| 20260505063017 | 57 | 135 | 2.0 | 7.0 | 0.00 | 0.00 | 0.00 | 54 | 1009.8 |
| 20260505062517 | 57 | 158 | 2.0 | 5.0 | 0.00 | 0.00 | 0.00 | 54 | 1009.5 |
| 20260505062017 | 57 | 135 | 3.0 | 10.0 | 0.00 | 0.00 | 0.00 | 54 | 1009.6 |
| 20260505061517 | 57 | 135 | 3.0 | 10.0 | 0.00 | 0.00 | 0.00 | 55 | 1009.6 |
| 20260505061017 | 57 | 135 | 2.0 | 8.0 | 0.00 | 0.00 | 0.00 | 56 | 1009.6 |
| 20260505060517 | 57 | 135 | 2.0 | 11.0 | 0.00 | 0.00 | 0.00 | 57 | 1009.7 |
| 20260505060017 | 57 | 158 | 3.0 | 11.0 | 0.00 | 0.00 | 0.00 | 58 | 1009.7 |
| 20260505055517 | 57 | 135 | 2.0 | 8.0 | 0.00 | 0.00 | 0.00 | 59 | 1009.7 |
| 20260505055017 | 57 | 135 | 2.0 | 8.0 | 0.00 | 0.00 | 0.00 | 59 | 1009.7 |
| 20260505054517 | 57 | 135 | 3.0 | 8.0 | 0.00 | 0.00 | 0.00 | 59 | 1009.7 |
| 20260505054017 | 57 | 135 | 3.0 | 10.0 | 0.00 | 0.00 | 0.00 | 59 | 1009.7 |
| 20260505053517 | 57 | 135 | 3.0 | 9.0 | 0.00 | 0.00 | 0.00 | 59 | 1009.6 |
| 20260505053017 | 58 | 135 | 2.0 | 5.0 | 0.00 | 0.00 | 0.00 | 58 | 1009.7 |
| 20260505052517 | 58 | 135 | 2.0 | 8.0 | 0.00 | 0.00 | 0.00 | 58 | 1009.5 |
| 20260505052017 | 58 | 135 | 3.0 | 8.0 | 0.00 | 0.00 | 0.00 | 57 | 1009.4 |
| 20260505051517 | 58 | 135 | 3.0 | 8.0 | 0.00 | 0.00 | 0.00 | 57 | 1009.4 |
| 20260505051017 | 58 | 158 | 3.0 | 11.0 | 0.00 | 0.00 | 0.00 | 57 | 1009.3 |
| 20260505050517 | 59 | 135 | 2.0 | 9.0 | 0.00 | 0.00 | 0.00 | 57 | 1009.3 |
| 20260505041517 | 62 | 158 | 2.0 | 7.0 | 0.00 | 0.00 | 0.00 | 45 | 1008.0 |
| 20260505041017 | 62 | 135 | 1.0 | 3.0 | 0.00 | 0.00 | 0.00 | 47 | 1008.0 |
| 20260505040517 | 62 | 135 | 1.0 | 7.0 | 0.00 | 0.00 | 0.00 | 43 | 1007.9 |
| 20260505040017 | 62 | 180 | 2.0 | 5.0 | 0.00 | 0.00 | 0.00 | 42 | 1007.7 |
| 20260505035517 | 62 | 135 | 2.0 | 7.0 | 0.00 | 0.00 | 0.00 | 42 | 1007.6 |
| 20260505035017 | 63 | 135 | 2.0 | 8.0 | 0.00 | 0.00 | 0.00 | 42 | 1007.5 |
| 20260505034517 | 63 | 135 | 2.0 | 10.0 | 0.00 | 0.00 | 0.00 | 42 | 1007.4 |
| 20260505034017 | 63 | 135 | 2.0 | 5.0 | 0.00 | 0.00 | 0.00 | 43 | 1007.4 |
| 20260505033517 | 63 | 135 | 1.0 | 5.0 | 0.00 | 0.00 | 0.00 | 44 | 1007.4 |
| 20260505033017 | 63 | 158 | 1.0 | 5.0 | 0.00 | 0.00 | 0.00 | 44 | 1007.3 |
| 20260505032517 | 63 | 203 | 1.0 | 4.0 | 0.00 | 0.00 | 0.00 | 43 | 1006.9 |
| 20260505032017 | 64 | 203 | 1.0 | 4.0 | 0.00 | 0.00 | 0.00 | 41 | 1007.1 |
| 20260505031517 | 64 | 203 | 2.0 | 6.0 | 0.00 | 0.00 | 0.00 | 41 | 1007.0 |
| 20260505031017 | 64 | 203 | 2.0 | 7.0 | 0.00 | 0.00 | 0.00 | 42 | 1006.9 |
| 20260505030517 | 64 | 158 | 3.0 | 9.0 | 0.00 | 0.00 | 0.00 | 42 | 1006.9 |
| 20260505030017 | 64 | 158 | 1.0 | 4.0 | 0.00 | 0.00 | 0.00 | 43 | 1006.9 |
| 20260505025517 | 64 | 158 | 2.0 | 6.0 | 0.00 | 0.00 | 0.00 | 43 | 1006.5 |
| 20260505025017 | 65 | 158 | 2.0 | 5.0 | 0.00 | 0.00 | 0.00 | 42 | 1006.7 |
| 20260505024517 | 65 | 203 | 1.0 | 9.0 | 0.00 | 0.00 | 0.00 | 41 | 1006.7 |
| 20260505024017 | 65 | 180 | 2.0 | 8.0 | 0.00 | 0.00 | 0.00 | 41 | 1006.7 |
| 20260505023517 | 65 | 180 | 2.0 | 7.0 | 0.00 | 0.00 | 0.00 | 40 | 1006.6 |
| 20260505023017 | 66 | 203 | 2.0 | 7.0 | 0.00 | 0.00 | 0.00 | 40 | 1006.5 |
| 20260505022518 | 66 | 158 | 1.0 | 4.0 | 0.00 | 0.00 | 0.00 | 37 | 1006.2 |
| 20260505022017 | 66 | 158 | 1.0 | 6.0 | 0.00 | 0.00 | 0.00 | 36 | 1006.2 |
| 20260505021517 | 66 | 158 | 1.0 | 6.0 | 0.00 | 0.00 | 0.00 | 36 | 1006.1 |
| 20260505021016 | 66 | 203 | 1.0 | 6.0 | 0.00 | 0.00 | 0.00 | 36 | 1006.0 |
| 20260505020517 | 66 | 135 | 1.0 | 6.0 | 0.00 | 0.00 | 0.00 | 35 | 1006.0 |
| 20260505020017 | 67 | 180 | 2.0 | 6.0 | 0.00 | 0.00 | 0.00 | 35 | 1006.0 |
| 20260505015517 | 67 | 158 | 2.0 | 8.0 | 0.00 | 0.00 | 0.00 | 34 | 1006.0 |
| 20260505015017 | 67 | 158 | 1.0 | 6.0 | 0.00 | 0.00 | 0.00 | 34 | 1006.1 |
| 20260505014517 | 67 | 158 | 1.0 | 5.0 | 0.00 | 0.00 | 0.00 | 34 | 1006.0 |
| 20260505014017 | 67 | 135 | 1.0 | 5.0 | 0.00 | 0.00 | 0.00 | 34 | 1006.0 |
| 20260505013517 | 68 | 135 | 1.0 | 5.0 | 0.00 | 0.00 | 0.00 | 34 | 1006.3 |
| 20260505013017 | 69 | 158 | 1.0 | 5.0 | 0.00 | 0.00 | 0.00 | 33 | 1006.3 |
| 20260505012517 | 70 | 203 | 1.0 | 5.0 | 0.00 | 0.00 | 0.00 | 31 | 1006.5 |
| 20260505012017 | 70 | 0.0 | 0.0 | 0.00 | 0.00 | 0.00 | 28 | 1006.5 | |
| 20260505011518 | 70 | 0.0 | 0.0 | 0.00 | 0.00 | 0.00 | 28 | 1006.4 | |
| 20260505011017 | 70 | 0.0 | 0.0 | 0.00 | 0.00 | 0.00 | 28 | 1006.5 | |
| 20260505010517 | 70 | 0.0 | 0.0 | 0.00 | 0.00 | 0.00 | 28 | 1006.5 | |
| 20260505010018 | 70 | 0.0 | 0.0 | 0.00 | 0.00 | 0.00 | 29 | 1006.5 | |
| 20260505005517 | 70 | 0.0 | 1.0 | 0.00 | 0.00 | 0.00 | 28 | 1006.5 | |
| 20260505005017 | 70 | 68 | 1.0 | 3.0 | 0.00 | 0.00 | 0.00 | 28 | 1006.5 |
| 20260505004517 | 70 | 0.0 | 2.0 | 0.00 | 0.00 | 0.00 | 29 | 1006.5 | |
| 20260505004017 | 70 | 0.0 | 2.0 | 0.00 | 0.00 | 0.00 | 29 | 1006.5 | |
| 20260505003517 | 70 | 0.0 | 3.0 | 0.00 | 0.00 | 0.00 | 28 | 1006.5 | |
| 20260505003017 | 70 | 0.0 | 1.0 | 0.00 | 0.00 | 0.00 | 31 | 1006.6 | |
| 20260505002517 | 70 | 0.0 | 2.0 | 0.00 | 0.00 | 0.00 | 31 | 1006.7 | |
| 20260505002017 | 69 | 0.0 | 1.0 | 0.00 | 0.00 | 0.00 | 31 | 1006.4 | |
| 20260505001517 | 69 | 0.0 | 0.0 | 0.00 | 0.00 | 0.00 | 32 | 1006.4 | |
| 20260505001017 | 69 | 68 | 1.0 | 3.0 | 0.00 | 0.00 | 0.00 | 31 | 1006.4 |
| 20260505000517 | 69 | 68 | 3.0 | 7.0 | 0.00 | 0.00 | 0.00 | 31 | 1006.4 |
| 20260505000017 | 69 | 23 | 4.0 | 7.0 | 0.00 | 0.00 | 0.00 | 31 | 1006.5 |
| 20260504235517 | 69 | 23 | 3.0 | 6.0 | 0.00 | 0.00 | 0.00 | 31 | 1006.9 |
| 20260504235017 | 69 | 45 | 4.0 | 7.0 | 0.00 | 0.00 | 0.00 | 31 | 1006.9 |
| 20260504234517 | 69 | 0 | 4.0 | 8.0 | 0.00 | 0.00 | 0.00 | 31 | 1007.0 |
| 20260504234017 | 69 | 68 | 5.0 | 11.0 | 0.00 | 0.00 | 0.00 | 32 | 1007.0 |
| 20260504233517 | 70 | 45 | 7.0 | 17.0 | 0.00 | 0.00 | 0.00 | 30 | 1007.0 |
| 20260504233017 | 70 | 45 | 5.0 | 10.0 | 0.00 | 0.00 | 0.00 | 31 | 1007.1 |
| 20260504232517 | 70 | 0 | 4.0 | 9.0 | 0.00 | 0.00 | 0.00 | 31 | 1007.1 |
| 20260504232017 | 69 | 23 | 5.0 | 11.0 | 0.00 | 0.00 | 0.00 | 32 | 1007.1 |
| 20260504231517 | 68 | 45 | 7.0 | 13.0 | 0.00 | 0.00 | 0.00 | 31 | 1006.8 |
| 20260504231017 | 68 | 45 | 8.0 | 13.0 | 0.00 | 0.00 | 0.00 | 31 | 1006.7 |
| 20260504230517 | 68 | 23 | 8.0 | 18.0 | 0.00 | 0.00 | 0.00 | 32 | 1006.7 |
| 20260504230017 | 68 | 45 | 9.0 | 17.0 | 0.00 | 0.00 | 0.00 | 32 | 1006.8 |
| 20260504225517 | 68 | 23 | 7.0 | 13.0 | 0.00 | 0.00 | 0.00 | 32 | 1006.7 |
| 20260504225017 | 68 | 45 | 9.0 | 21.0 | 0.00 | 0.00 | 0.00 | 31 | 1007.2 |
| 20260504224517 | 69 | 45 | 9.0 | 18.0 | 0.00 | 0.00 | 0.00 | 30 | 1007.0 |
| 20260504224017 | 70 | 45 | 6.0 | 13.0 | 0.00 | 0.00 | 0.00 | 29 | 1007.3 |
| 20260504223517 | 71 | 45 | 5.0 | 9.0 | 0.00 | 0.00 | 0.00 | 30 | 1007.3 |
| 20260504223017 | 71 | 45 | 7.0 | 15.0 | 0.00 | 0.00 | 0.00 | 28 | 1007.3 |
| 20260504222517 | 72 | 68 | 5.0 | 10.0 | 0.00 | 0.00 | 0.00 | 30 | 1007.6 |
| 20260504222017 | 72 | 315 | 3.0 | 11.0 | 0.00 | 0.00 | 0.00 | 28 | 1007.5 |
| 20260504221517 | 71 | 270 | 3.0 | 6.0 | 0.00 | 0.00 | 0.00 | 30 | 1007.6 |
| 20260504221017 | 70 | 270 | 3.0 | 9.0 | 0.00 | 0.00 | 0.00 | 32 | 1007.3 |
| 20260504220517 | 70 | 270 | 5.0 | 11.0 | 0.00 | 0.00 | 0.00 | 31 | 1007.3 |
| 20260504220017 | 70 | 270 | 3.0 | 8.0 | 0.00 | 0.00 | 0.00 | 33 | 1007.4 |
| 20260504215517 | 69 | 270 | 4.0 | 9.0 | 0.00 | 0.00 | 0.00 | 33 | 1007.4 |
| 20260504215017 | 69 | 225 | 5.0 | 10.0 | 0.00 | 0.00 | 0.00 | 33 | 1007.2 |
| 20260504214517 | 68 | 225 | 4.0 | 9.0 | 0.00 | 0.00 | 0.00 | 35 | 1007.3 |
| 20260504214017 | 68 | 248 | 6.0 | 11.0 | 0.00 | 0.00 | 0.00 | 35 | 1007.0 |
| 20260504213516 | 67 | 248 | 8.0 | 16.0 | 0.00 | 0.00 | 0.00 | 35 | 1007.0 |
| 20260504213017 | 67 | 225 | 8.0 | 13.0 | 0.00 | 0.00 | 0.00 | 35 | 1007.1 |
| 20260504212517 | 67 | 248 | 8.0 | 14.0 | 0.00 | 0.00 | 0.00 | 35 | 1007.1 |
| 20260504212017 | 67 | 225 | 8.0 | 23.0 | 0.00 | 0.00 | 0.00 | 35 | 1007.0 |
| 20260504211517 | 67 | 225 | 9.0 | 23.0 | 0.00 | 0.00 | 0.00 | 34 | 1007.1 |
| 20260504211017 | 68 | 248 | 8.0 | 19.0 | 0.00 | 0.00 | 0.00 | 33 | 1007.0 |
| 20260504210517 | 68 | 225 | 9.0 | 17.0 | 0.00 | 0.00 | 0.00 | 32 | 1007.1 |
| 20260504210017 | 68 | 225 | 8.0 | 13.0 | 0.00 | 0.00 | 0.00 | 30 | 1007.1 |
| 20260504205517 | 69 | 225 | 5.0 | 10.0 | 0.00 | 0.00 | 0.00 | 30 | 1007.3 |
| 20260504205017 | 69 | 225 | 6.0 | 10.0 | 0.00 | 0.00 | 0.00 | 31 | 1007.2 |
| 20260504204517 | 70 | 225 | 4.0 | 10.0 | 0.00 | 0.00 | 0.00 | 31 | 1007.3 |
| 20260504204017 | 70 | 225 | 5.0 | 9.0 | 0.00 | 0.00 | 0.00 | 30 | 1007.2 |
| 20260504203517 | 71 | 225 | 6.0 | 10.0 | 0.00 | 0.00 | 0.00 | 28 | 1007.5 |
| 20260504203017 | 73 | 248 | 3.0 | 8.0 | 0.00 | 0.00 | 0.00 | 27 | 1007.5 |
| 20260504202517 | 73 | 0.0 | 5.0 | 0.00 | 0.00 | 0.00 | 26 | 1007.8 | |
| 20260504202017 | 73 | 0.0 | 3.0 | 0.00 | 0.00 | 0.00 | 26 | 1007.2 | |
| 20260504201517 | 73 | 0 | 1.0 | 4.0 | 0.00 | 0.00 | 0.00 | 25 | 1007.3 |
| 20260504201020 | 73 | 0.0 | 3.0 | 0.00 | 0.00 | 0.00 | 26 | 1007.4 | |
| 20260504200517 | 73 | 0 | 1.0 | 5.0 | 0.00 | 0.00 | 0.00 | 26 | 1007.3 |
| 20260504200017 | 73 | 0 | 1.0 | 5.0 | 0.00 | 0.00 | 0.00 | 27 | 1007.4 |
| 20260504195517 | 72 | 0 | 2.0 | 6.0 | 0.00 | 0.00 | 0.00 | 26 | 1007.4 |
| 20260504195017 | 72 | 225 | 3.0 | 6.0 | 0.00 | 0.00 | 0.00 | 26 | 1006.6 |
| 20260504194517 | 72 | 225 | 1.0 | 4.0 | 0.00 | 0.00 | 0.00 | 26 | 1006.6 |
| 20260504194017 | 72 | 225 | 1.0 | 5.0 | 0.00 | 0.00 | 0.00 | 26 | 1006.6 |
| 20260504193517 | 72 | 225 | 2.0 | 8.0 | 0.00 | 0.00 | 0.00 | 27 | 1006.7 |
| 20260504193017 | 73 | 180 | 2.0 | 7.0 | 0.00 | 0.00 | 0.00 | 26 | 1007.1 |
| 20260504192517 | 73 | 180 | 1.0 | 4.0 | 0.00 | 0.00 | 0.00 | 27 | 1007.1 |
| 20260504192017 | 73 | 180 | 1.0 | 3.0 | 0.00 | 0.00 | 0.00 | 26 | 1007.1 |
| 20260504191517 | 73 | 135 | 1.0 | 4.0 | 0.00 | 0.00 | 0.00 | 27 | 1007.1 |
| 20260504191017 | 73 | 0.0 | 3.0 | 0.00 | 0.00 | 0.00 | 27 | 1007.3 | |
| 20260504190517 | 73 | 158 | 1.0 | 3.0 | 0.00 | 0.00 | 0.00 | 26 | 1007.3 |
| 20260504190022 | 73 | 203 | 1.0 | 4.0 | 0.00 | 0.00 | 0.00 | 27 | 1007.4 |
| 20260504185517 | 73 | 203 | 1.0 | 5.0 | 0.00 | 0.00 | 0.00 | 28 | 1007.5 |
| 20260504185017 | 72 | 158 | 1.0 | 4.0 | 0.00 | 0.00 | 0.00 | 27 | 1007.8 |
| 20260504184517 | 73 | 135 | 2.0 | 7.0 | 0.00 | 0.00 | 0.00 | 26 | 1007.9 |
| 20260504184017 | 73 | 135 | 2.0 | 7.0 | 0.00 | 0.00 | 0.00 | 27 | 1008.0 |
| 20260504183517 | 73 | 180 | 2.0 | 5.0 | 0.00 | 0.00 | 0.00 | 27 | 1007.9 |
| 20260504183017 | 73 | 90 | 2.0 | 7.0 | 0.00 | 0.00 | 0.00 | 29 | 1008.0 |
| 20260504182518 | 73 | 158 | 1.0 | 5.0 | 0.00 | 0.00 | 0.00 | 27 | 1008.1 |
| 20260504182017 | 73 | 203 | 2.0 | 7.0 | 0.00 | 0.00 | 0.00 | 29 | 1008.5 |
| 20260504181517 | 73 | 135 | 2.0 | 8.0 | 0.00 | 0.00 | 0.00 | 28 | 1008.5 |
| 20260504181015 | 73 | 180 | 1.0 | 5.0 | 0.00 | 0.00 | 0.00 | 28 | 1008.5 |
| 20260504180517 | 72 | 203 | 2.0 | 8.0 | 0.00 | 0.00 | 0.00 | 29 | 1008.7 |
| 20260504180017 | 72 | 135 | 2.0 | 10.0 | 0.00 | 0.00 | 0.00 | 28 | 1008.7 |
| 20260504175517 | 72 | 135 | 1.0 | 7.0 | 0.00 | 0.00 | 0.00 | 29 | 1008.8 |
| 20260504175017 | 72 | 180 | 2.0 | 8.0 | 0.00 | 0.00 | 0.00 | 30 | 1009.2 |
| 20260504174517 | 72 | 135 | 2.0 | 14.0 | 0.00 | 0.00 | 0.00 | 29 | 1009.1 |
| 20260504174017 | 72 | 158 | 2.0 | 6.0 | 0.00 | 0.00 | 0.00 | 29 | 1009.2 |
| 20260504173517 | 72 | 203 | 1.0 | 6.0 | 0.00 | 0.00 | 0.00 | 30 | 1009.3 |
| 20260504173017 | 71 | 135 | 2.0 | 7.0 | 0.00 | 0.00 | 0.00 | 30 | 1009.3 |
| 20260504172517 | 71 | 135 | 1.0 | 6.0 | 0.00 | 0.00 | 0.00 | 30 | 1009.4 |
| 20260504172017 | 71 | 135 | 1.0 | 7.0 | 0.00 | 0.00 | 0.00 | 30 | 1009.7 |
| 20260504171518 | 71 | 158 | 1.0 | 5.0 | 0.00 | 0.00 | 0.00 | 30 | 1009.8 |
| 20260504171017 | 70 | 135 | 2.0 | 6.0 | 0.00 | 0.00 | 0.00 | 31 | 1009.6 |
| 20260504170517 | 70 | 135 | 2.0 | 6.0 | 0.00 | 0.00 | 0.00 | 32 | 1009.6 |
| 20260504151017 | 63 | 180 | 1.0 | 4.0 | 0.00 | 0.00 | 0.00 | 46 | 1010.4 |
| 20260504150517 | 63 | 180 | 1.0 | 4.0 | 0.00 | 0.00 | 0.00 | 46 | 1010.4 |
| 20260504141017 | 61 | 203 | 1.0 | 5.0 | 0.00 | 0.00 | 0.00 | 49 | 1010.4 |
| 20260504140517 | 60 | 203 | 1.0 | 6.0 | 0.00 | 0.00 | 0.00 | 49 | 1010.4 |
| 20260504130517 | 58 | 180 | 2.0 | 6.0 | 0.00 | 0.00 | 0.00 | 52 | 1010.7 |